SCP
0 0 0 0 0 0 0 0 0 0 0 0 0 0 0 0 0 0 0 0 0 0 0 0 0 0 0 0 0 0 0 0 0 0 0 0 0 0 0 0 0 0 0
0 0 0 0 0 0 0 0 0 0 0 0 0 0 0 0 0 0 0 0 0 0 0 0 0 0 0 0 0 0 0 0 0 0 0 0 0 0 0 0 0 0 0
0 0 0 0 0 0 0 0 0 0 0 0 0 0 0 0 0 0 0 0 0 0 0 0 0 0 0 0 0 0 0 0 0 0 0 0 0 0 0 0 0 0 0
0 0 0 0 0 0 0 0 0 0 0 0 0 0 0 0 0 0 0 0 0 0 0 0 0 0 0 0 0 0 0 0 0 0 0 0 0 0 0 0 0 0 0
0 0 0 0 0 0 0 0 0 0 0 0 0 0 0 0 0 0 0 0 0 0 0 0 0 0 0 0 0 0 0 0 0 0 0 0 0 0 0 0 0 0 0
0 0 0 0 0 0 0 0 0 0 0 0 0 0 0 0 0 0 0 0 0 0 0 0 0 0 0 0 0 0 0 0 0 0 0 0 0 0 0 0 0 0 0
0 0 0 0 0 0 0 0 0 0 0 0 0 0 0 0 0 0 0 0 0 0 0 0 0 0 0 0 0 0 0 0 0 0 0 0 0 0 0 0 0 0 0
0 0 0 0 0 0 0 0 0 0 0 0 0 0 0 0 0 0 0 0 0 0 0 0 0 0 0 0 0 0 0 0 0 0 0 0 0 0 0 0 0 0 0
0 0 0 0 0 0 0 0 0 0 0 0 0 0 0 0 0 0 0 0 0 0 0 0 0 0 0 0 0 0 0 0 0 0 0 0 0 0 0 0 0 0 0
0 0 0 0 0 0 0 0 0 0 0 0 0 0 0 0 0 0 0 0 0 0 0 0 0 0 0 0 0 0 0 0 0 0 0 0 0 0 0 0 0 0 0
0 0 0 0 0 0 0 0 0 0 0 0 0 0 0 0 0 0 0 0 0 0 0 0 0 0 0 0 0 0 0 0 0 0 0 0 0 0 0 0 0 0 0
0 0 0 0 0 0 0 0 0 0 0 0 0 0 0 0 0 0 0 0 0 0 0 0 0 0 0 0 0 0 0 0 0 0 0 0 0 0 0 0 0 0 0
0 0 0 0 0 0 0 0 0 0 0 0 0 0 0 0 0 0 0 0 0 0 0 0 0 0 0 0 0 0 0 0 0 0 0 0 0 0 0 0 0 0 0
0 0 0 0 0 0 0 0 0 0 0 0 0 0 0 0 0 0 0 0 0 0 0 0 0 0 0 0 0 0 0 0 0 0 0 0 0 0 0 0 0 0 0
0 0 0 0 0 0 0 0 0 0 0 0 0 0 0 0 0 0 0 0 0 0 0 0 0 0 0 0 0 0 0 0 0 0 0 0 0 0 0 0 0 0 0
0 0 0 0 0 0 0 0 0 0 0 0 0 0 0 0 0 0 0 0 0 0 0 0 0 0 0 0 0 0 0 0 0 0 0 0 0 0 0 0 0 0 0
0 0 0 0 0 0 0 0 0 0 0 0 0 0 0 0 0 0 0 0 0 0 0 0 0 0 0 0 0 0 0 0 0 0 0 0 0 0 0 0 0 0 0
0 0 0 0 0 0 0 0 0 0 0 0 0 0 0 0 0 0 0 0 0 0 0 0 0 0 0 0 0 0 0 0 0 0 0 0 0 0 0 0 0 0 0
0 0 0 0 0 0 0 0 0 0 0 0 0 0 0 0 0 0 0 0 0 0 0 0 0 0 0 0 0 0 0 0 0 0 0 0 0 0 0 0 0 0 0
0 0 0 0 0 0 0 0 0 0 0 0 0 0 0 0 0 0 0 0 0 0 0 0 0 0 0 0 0 0 0 0 0 0 0 0 0 0 0 0 0 0 0
0 0 0 0 0 0 0 0 0 0 0 0 0 0 0 0 0 0 0 0 0 0 0 0 0 0 0 0 0 0 0 0 0 0 0 0 0 0 0 0 0 0 0
0 0 0 0 0 0 0 -0 -0 0 0 0 0 0 0 0 0 0 0 0 0 0 0 0 0 0 0 0 0 0 0 0 0 0 0 0 0 0 0 0 0 0 0
0 0 0 0 0 0 0 -0 -0 -0 0 0 0 0 0 0 0 0 0 0 0 0 0 0 0 0 0 0 0 0 0 0 0 0 0 0 0 0 0 0 0 0 0
0 0 0 0 0 0 0 0 -0 -0 -0 0 0 0 0 0 0 0 0 0 0 0 0 0 0 0 0 0 0 0 0 0 0 0 0 0 0 0 0 0 0 0 0
0 0 0 0 0 0 0 0 0 0 -0 -0 0 0 0 0 0 0 0 0 0 0 0 0 0 0 0 0 0 0 0 0 0 0 0 0 0 0 0 0 0 0 0
0 0 0 0 0 0 0 0 0 0 0 -0 -0 0 0 0 0 0 0 0 0 0 0 0 0 0 0 0 0 0 0 0 0 0 0 0 0 0 0 0 0 0 0
Wind_Speed
1 2 5 6 8 9 10 10 10 10 10 10 11 11 12 12 13 13 13 13 12 12 13 14 14 14 15 15 16 16 16 16 16 16 16 15 15 16 16 15 14 11 16
3 3 6 7 8 9 10 10 10 10 10 10 10 11 11 12 12 13 13 13 13 13 13 14 14 15 15 15 16 16 16 16 16 16 15 13 14 16 16 16 14 11 17
4 3 5 7 8 9 9 10 10 10 9 10 10 11 11 11 12 12 12 13 13 13 14 14 15 15 15 15 15 15 16 16 15 14 12 8 10 15 16 16 16 17 16
4 3 4 7 9 9 9 9 10 10 10 9 10 10 11 11 11 12 12 12 13 13 14 14 14 14 14 14 15 15 15 16 15 12 8 7 7 14 16 16 16 16 16
4 3 4 8 9 9 9 9 10 10 9 9 10 10 10 11 11 11 12 12 12 13 14 14 14 14 14 14 15 15 15 15 14 11 7 6 6 14 16 16 16 16 16
4 3 4 8 9 9 9 9 10 9 9 10 10 10 10 11 11 11 11 11 12 13 13 13 14 14 14 14 15 15 15 14 11 7 7 6 6 13 15 15 15 15 16
4 3 4 8 9 9 9 9 9 9 9 9 9 10 10 10 11 11 10 11 11 12 13 13 13 14 14 14 15 15 14 13 8 7 6 6 8 13 14 14 14 14 15
5 4 4 6 8 8 8 8 9 9 9 9 9 9 9 10 11 11 10 11 11 11 12 12 13 13 14 14 15 15 14 11 9 7 6 6 10 13 13 13 13 14 14
5 4 3 3 5 6 7 8 8 8 8 9 9 9 9 9 10 11 11 11 11 11 12 12 12 13 13 14 14 14 14 12 7 5 6 5 10 13 13 13 12 13 13
5 4 3 3 4 3 4 7 8 7 8 9 9 9 9 8 9 10 10 11 11 11 11 11 12 12 12 13 13 13 13 10 6 6 4 5 11 12 13 13 12 13 13
5 4 4 3 3 3 3 4 6 6 7 7 7 9 8 5 5 5 8 9 10 11 11 11 12 12 11 12 12 12 9 5 5 4 4 8 11 12 13 13 13 12 12
3 3 3 3 3 3 3 3 3 3 3 4 4 4 4 3 3 5 7 9 10 10 10 11 11 10 8 5 7 9 4 5 5 4 4 10 11 12 12 13 13 13 12
3 3 3 3 3 3 2 2 2 2 2 3 3 4 4 3 3 3 3 4 5 6 5 6 6 4 4 4 4 4 5 4 3 3 4 9 10 11 11 12 12 12 12
3 3 3 3 3 3 2 2 2 2 2 2 2 3 3 2 2 2 2 2 2 2 3 3 3 4 5 5 5 5 5 4 3 3 4 9 10 11 10 11 11 10 11
2 2 2 3 3 3 2 1 2 2 1 1 2 2 2 2 2 2 2 2 2 2 3 3 3 4 4 5 5 5 5 5 4 4 3 8 9 9 10 9 10 10 10
2 2 2 3 3 3 2 1 2 1 1 1 1 1 2 2 2 2 2 2 2 2 2 3 3 3 3 3 4 5 4 4 4 4 4 5 9 8 8 8 8 9 9
1 2 2 3 3 3 2 2 2 1 1 1 1 1 2 2 3 2 2 2 2 2 3 3 3 3 3 4 4 4 4 4 4 4 4 3 4 7 8 8 8 8 8
2 2 3 3 3 3 2 1 1 1 1 1 1 1 2 2 2 2 2 2 2 2 3 3 3 3 3 3 3 3 3 3 4 4 4 4 3 3 5 7 7 7 7
2 2 2 3 3 2 2 2 1 1 1 1 1 1 1 2 2 2 2 2 2 2 2 3 3 3 3 3 3 3 2 2 3 3 4 4 3 3 3 5 7 6 6
3 3 2 3 3 2 2 2 2 2 1 1 1 1 2 2 2 2 2 2 2 2 2 3 3 3 3 3 4 3 2 2 2 2 2 2 3 3 3 3 3 3 5
3 3 3 3 3 2 2 1 1 1 0 0 0 1 1 2 2 2 2 2 2 3 3 4 3 4 3 3 3 2 2 2 2 1 1 2 2 2 2 3 2 2 2
2 2 2 2 2 2 1 0 0 0 0 1 0 0 1 2 2 2 3 2 2 2 4 4 4 3 2 2 3 3 1 1 2 1 1 1 1 1 2 2 2 2 1
1 1 1 1 1 1 2 1 1 1 1 1 1 0 1 1 1 2 3 3 2 3 4 5 5 5 4 2 2 3 3 3 1 1 1 1 1 1 1 1 1 1 1
0 0 0 1 1 1 1 1 2 1 1 1 1 1 1 1 1 1 2 3 3 2 4 5 4 3 5 4 2 1 1 3 3 1 1 1 1 0 0 0 0 1 0
1 1 0 1 1 1 1 1 1 0 1 1 1 1 1 1 1 1 2 2 3 3 3 4 4 4 4 4 3 2 1 1 1 3 2 2 1 1 1 1 1 1 1
3 2 1 1 1 1 0 0 1 1 1 1 1 1 1 2 1 2 2 2 2 3 4 4 4 5 5 5 4 3 3 3 3 3 3 3 2 2 2 2 2 2 2
Wind_Direction
197 200 157 131 122 117 113 107 99 94 93 94 92 90 87 86 84 83 81 79 77 79 80 80 79 78 76 75 74 73 72 70 68 70 75 80 84 86 84 82 81 82 87
170 175 143 126 122 119 114 109 104 99 94 95 95 93 90 88 85 83 81 79 78 81 82 82 81 80 79 76 74 73 74 70 68 66 67 71 78 84 84 83 83 86 87
133 146 139 123 118 115 115 113 108 104 99 97 98 96 93 92 90 86 82 80 77 80 80 79 79 80 79 77 74 73 73 71 68 64 62 62 75 82 85 84 84 86 86
124 126 130 121 114 110 114 115 112 107 102 101 100 99 97 94 92 90 86 82 79 79 78 78 77 77 79 77 76 75 74 72 67 63 58 57 70 83 86 86 86 85 84
104 108 126 117 114 109 108 113 112 108 105 103 103 100 100 98 94 91 88 85 82 80 80 78 75 74 76 78 79 78 76 72 65 60 54 54 65 84 86 86 85 85 84
92 84 108 109 109 106 106 108 109 108 105 104 105 102 102 100 98 95 92 88 85 83 81 80 77 76 77 78 78 78 77 71 64 57 52 53 64 84 86 85 85 86 85
99 89 104 108 109 105 101 100 106 108 105 102 104 104 104 102 101 98 96 93 89 86 84 82 80 80 80 78 75 74 74 69 66 62 55 54 70 82 84 86 87 88 87
97 93 102 110 107 106 103 100 98 105 106 104 101 100 102 105 103 103 101 97 92 89 86 83 82 79 81 78 75 72 66 66 65 63 59 60 77 84 84 86 88 88 88
85 86 82 87 95 102 101 98 95 97 99 98 97 95 92 93 99 101 103 99 94 89 85 83 83 80 80 77 74 70 66 61 56 56 59 61 77 85 85 86 86 88 89
74 74 74 75 77 81 96 99 95 92 95 93 91 89 86 86 90 94 96 99 96 90 86 83 82 80 78 76 73 69 63 57 51 51 48 69 80 85 87 87 87 87 88
67 63 64 70 70 74 81 91 95 95 95 95 90 84 80 72 74 84 87 91 92 90 86 84 81 77 72 71 70 66 61 53 48 48 47 72 84 86 86 85 86 86 87
87 68 64 70 74 79 79 79 82 83 89 84 83 82 75 75 74 79 80 84 86 83 81 80 76 70 64 58 60 59 56 49 49 42 55 70 80 83 84 85 83 82 83
119 82 68 73 72 79 85 81 69 74 85 89 93 90 87 80 77 71 70 71 74 74 68 67 63 58 60 59 58 58 55 52 45 37 53 70 79 82 84 84 86 85 83
110 96 80 73 82 72 78 91 89 76 90 101 104 105 105 98 92 89 83 74 76 76 75 67 73 66 66 65 65 64 59 54 42 33 49 66 76 82 87 85 86 88 86
95 97 100 83 86 82 77 87 85 88 83 103 118 113 114 121 119 112 103 89 90 92 91 88 83 78 74 68 65 67 62 56 47 40 40 59 71 79 84 85 83 84 87
103 110 104 99 93 92 86 85 101 106 91 85 104 108 119 126 127 120 120 108 102 107 99 100 97 88 81 78 70 64 61 57 52 49 43 46 56 67 77 81 82 83 83
116 117 108 101 87 94 98 90 88 106 116 100 100 111 106 114 125 123 127 127 126 111 107 102 92 88 86 80 73 65 59 57 57 52 49 44 40 51 65 76 77 78 80
71 94 103 87 83 83 80 79 82 93 116 113 100 122 107 96 116 126 124 133 139 121 117 119 112 101 93 89 79 62 56 61 58 55 55 50 43 37 50 64 70 71 77
75 69 98 92 87 78 73 73 73 66 93 102 94 113 117 117 114 120 127 133 144 128 123 130 118 119 115 102 90 70 54 59 55 61 62 55 53 48 40 47 52 61 68
51 53 55 80 76 73 76 77 68 55 57 69 95 131 123 121 126 124 120 135 145 138 129 128 127 116 118 117 97 69 43 39 50 57 63 58 59 58 52 51 42 44 56
49 45 38 58 60 69 71 75 81 49 35 21 102 104 137 133 138 140 137 134 156 160 156 145 132 126 114 118 100 72 28 30 49 49 59 75 69 60 59 55 47 41 42
71 49 49 42 55 57 46 33 339 101 281 292 282 126 139 149 155 157 150 155 171 163 157 157 150 138 145 144 133 128 94 10 3 17 50 98 95 67 65 59 52 40 38
73 65 46 20 29 36 44 53 50 40 29 7 328 266 277 194 178 184 174 169 177 176 174 175 173 162 167 188 162 151 159 190 240 331 344 29 92 91 95 71 43 35 40
114 64 137 109 40 33 67 105 122 137 244 268 273 259 284 245 195 197 183 182 181 184 184 185 183 178 168 181 189 183 171 157 160 198 297 311 330 261 242 260 292 308 280
42 43 87 101 60 36 90 143 157 204 297 293 299 269 268 273 207 193 198 194 191 189 192 192 185 184 183 187 185 172 150 139 159 167 218 253 294 275 262 243 235 255 266
35 22 24 87 34 13 68 179 185 212 278 286 285 270 268 278 240 207 201 210 209 203 198 200 198 194 195 191 192 189 181 178 184 178 191 207 235 261 269 252 237 241 240